Notices

What's New in latest Release from April 7th, 2021:

- Updated Glossary, including Speed of Maximum Gust, and Total Hourly Precipitation

- Updated national and regional climate services offices contacts and prices information

- Addition of station inventory lists for 1981-2010, 1971-2000, and 1961-1990 Normals.

If you haven't already, please take our survey and provide feedback about our website: https://eccc.sondage-survey.ca/f/LanguageSelection.aspx?s=442ca660-fcf1-47c0-95a9-59707d6fd709

Hourly Data Report for November 06, 2006

TORONTO CITY
ONTARIO

43°40'00.000" N
79°24'00.000" W
112.50 m
6158355
71508
XTO

Download Data

Hourly Data (November 2006)
Hourly Data Report for November 6, 2006
TIME
LST
Temp Definition
°C
Dew Point Definition
°C
Rel Hum Definition
%
Precip. Amount Definition
mm

Wind Dir Definition
10's deg

Wind Spd Definition
km/h
Visibility Definition
km
Stn Press Definition
kPa
Hmdx Definition


Wind Chill Definition


Weather Definition


00:00 6.0 0.7 69   LegendMM LegendMM   101.30     LegendNANA
01:00 6.7 1.8 71   LegendMM LegendMM   101.28     LegendNANA
02:00 5.5 1.6 76   LegendMM LegendMM   101.28     LegendNANA
03:00 4.8 1.3 78   LegendMM LegendMM   101.27     LegendNANA
04:00 4.3 0.9 79   LegendMM LegendMM   101.28     LegendNANA
05:00 4.4 1.5 81   LegendMM LegendMM   101.30     LegendNANA
06:00 4.5 1.5 81   LegendMM LegendMM   101.34     LegendNANA
07:00 4.9 2.0 81   LegendMM LegendMM   101.34     LegendNANA
08:00 4.9 2.4 84   LegendMM LegendMM   101.37     LegendNANA
09:00 7.4 3.2 75   LegendMM LegendMM   101.34     LegendNANA
10:00 9.1 3.1 66   LegendMM LegendMM   101.31     LegendNANA
11:00 10.4 3.9 64   LegendMM LegendMM   101.31     LegendNANA
12:00 11.2 4.6 64   LegendMM LegendMM   101.26     LegendNANA
13:00 12.6 4.8 59   LegendMM LegendMM   101.17     LegendNANA
14:00 12.6 5.3 61   LegendMM LegendMM   101.10     LegendNANA
15:00 12.8 5.8 62   LegendMM LegendMM   101.06     LegendNANA
16:00 13.0 6.6 65   LegendMM LegendMM   101.05     LegendNANA
17:00 10.2 5.8 74   LegendMM LegendMM   101.05     LegendNANA
18:00 10.3 6.8 79   LegendMM LegendMM   101.04     LegendNANA
19:00 9.2 6.4 83   LegendMM LegendMM   100.99     LegendNANA
20:00 9.1 5.8 80   LegendMM LegendMM   100.96     LegendNANA
21:00 8.8 6.8 87   LegendMM LegendMM   100.90     LegendNANA
22:00 9.4 6.5 82   LegendMM LegendMM   100.88     LegendNANA
23:00 8.8 6.1 83   LegendMM LegendMM   100.83     LegendNANA

Notes on Data Quality.

Legend

  • E = Estimated
  • M = Missing
  • NA = Not Available*
  • [empty] = Indicates an unobserved value
Date modified: